Hourly Weather Roundup
Issued by NWS Central Illinois

Home | Current Version | Previous Version | Text Only | Print | Product List | Glossary On
Versions: 1 2 3 4 5 6 7 8 9 10 11 12 13 14 15 16 17 18 19 20 21 22 23 24 25 26 27 28 29 30 31 32 33 34 35 36 37 38 39 40 41 42 43 44 45 46 47 48 49 50
000
NZUS43 KILX 310910
HWRILX

AREA WEATHER ROUNDUP
NATIONAL WEATHER SERVICE, LINCOLN IL
400 AM CDT FRI JUL 31 2015


CITY           SKY/WX    TMP DP  RH WIND       PRES   REMARKS
BLOOMINGTON    CLEAR     69  66  90 W8        30.10F
CHAMPAIGN      CLEAR     65  63  93 W5        30.09S
DANVILLE       CLEAR     65  63  95 W5        30.05S
DECATUR        CLEAR     73  65  75 W8        30.09F
EFFINGHAM      CLEAR     69  62  79 W5        30.09F
FLORA          CLEAR     71  63  76 NW6       30.08F
GALESBURG      CLEAR     62  61  96 CALM      30.10S
JACKSONVILLE   CLEAR     69  65  89 W6        30.10F
LACON          CLEAR     66  64  92 CALM      30.07S
LAWRENCEVILLE  CLEAR     68  64  87 NW5       30.07F
LITCHFIELD     CLEAR     67  63  88 NW3       30.11S
$$


CITY           SKY/WX    TMP DP  RH WIND       PRES   REMARKS
LINCOLN        CLEAR     72  65  79 W5        30.09S
MACOMB         CLEAR     67  65  93 W5        30.13S
MATTOON        CLEAR     68  63  84 NW7       30.08F
MT CARMEL AP   CLEAR     66  63  88 NW3       30.06F
OLNEY-NOBLE AP CLEAR     66  64  94 NW6       30.08S
PARIS          CLEAR     64  63  97 NW3       30.08F
PEORIA         CLEAR     71  63  75 W5        30.09S
PONTIAC        CLEAR     66  65  97 SW3       30.08F
RANTOUL        CLEAR     66  65  94 W6        30.08S
ROBINSON       CLEAR     65  63  94 NW5       30.08S
SPRINGFIELD    CLEAR     65  63  93 W5        30.10F
TAYLORVILLE    CLEAR     63  63 100 W3        30.10S
$$

...REGIONAL REPORTS...


CITY           SKY/WX    TMP DP  RH WIND       PRES   REMARKS
CHICAGO O`HARE CLEAR     69  58  67 W6        30.02F
KANKAKEE       CLEAR     65  64  94 CALM      30.06F
MOLINE         CLEAR     67  63  87 SW3       30.07F
MOUNT STERLING NOT AVBL
MOUNT VERNON   CLEAR     64  61  88 CALM      30.09F
PITTSFIELD     PTCLDY    71  64  79 W3        30.13S
QUINCY         PTCLDY    70  64  81 W5        30.12F
ROCKFORD       PTCLDY    62  58  86 S5        30.05F
$$


CITY           SKY/WX    TMP DP  RH WIND       PRES   REMARKS
BURLINGTON     CLEAR     69  65  86 W3        30.10S
CEDAR RAPIDS   CLEAR     65  64  97 W5        30.07F
DES MOINES     PTCLDY    71  64  78 W5        30.10F
KIRKSVILLE     CLEAR     67  63  87 W3        30.15F
OTTUMWA        CLEAR     66  64  93 W6        30.09F
ST LOUIS       PTCLDY    72  65  78 W3        30.12F
$$


CITY           SKY/WX    TMP DP  RH WIND       PRES   REMARKS
TERRE HAUTE    CLEAR     68  64  87 N5        30.06F
EVANSVILLE     CLEAR     73  64  73 NW6       30.07F
INDIANAPOLIS   CLEAR     66  60  81 W7        30.03F
LAFAYETTE      CLEAR     64  63  96 W3        30.05S
MADISON        PTCLDY    69  57  65 CALM      30.00F
MILWAUKEE      CLEAR     70  56  61 W7        29.99S
$$




USA.gov is the U.S. government's official web portal to all federal, state and local government web resources and services.